TimeAST,TemperatureF,Dew PointF,Humidity,Sea Level PressureIn,VisibilityMPH,Wind Direction,Wind SpeedMPH,Gust SpeedMPH,PrecipitationIn,Events,Conditions,WindDirDegrees,DateUTC
1:00 AM,26.8,26.4,99,30.43,-9999.0,ENE,2.3,-,N/A,,Unknown,60,2012-12-10 05:00:00
2:00 AM,28,27,96,30.42,,SSE,2.3,,,,,160,2012-12-10 06:00:00
2:00 AM,28.0,27.3,97,30.42,-9999.0,SSE,2.3,-,N/A,,Unknown,160,2012-12-10 06:00:00
3:00 AM,28.6,27.9,97,30.40,-9999.0,SSE,3.5,-,N/A,,Unknown,150,2012-12-10 07:00:00
4:00 AM,28.8,27.9,96,30.39,-9999.0,SE,2.3,-,N/A,,Unknown,130,2012-12-10 08:00:00
5:00 AM,29.3,28.2,96,30.39,-9999.0,SSW,1.2,-,N/A,,Unknown,210,2012-12-10 09:00:00
6:00 AM,29.5,28.0,94,30.36,-9999.0,ESE,4.6,-,N/A,,Unknown,120,2012-12-10 10:00:00
7:00 AM,29.8,26.6,88,30.36,-9999.0,SE,4.6,-,N/A,,Unknown,130,2012-12-10 11:00:00
8:00 AM,30,26,77,30.32,,SE,9.2,,,,,140,2012-12-10 12:00:00
8:00 AM,30.2,25.5,83,30.32,-9999.0,SE,9.2,-,N/A,,Unknown,140,2012-12-10 12:00:00
9:00 AM,30.4,27.5,89,30.28,-9999.0,SE,9.2,-,N/A,,Unknown,130,2012-12-10 13:00:00
10:00 AM,31.1,30.2,96,30.24,-9999.0,SE,8.1,-,N/A,,Unknown,130,2012-12-10 14:00:00
11:00 AM,31.8,31.8,100,30.18,-9999.0,SSE,9.2,-,N/A,,Unknown,150,2012-12-10 15:00:00
12:00 PM,33.3,33.1,99,30.11,-9999.0,SSE,10.4,-,N/A,,Unknown,150,2012-12-10 16:00:00
1:00 PM,38.3,37.9,99,30.04,-9999.0,SSE,10.4,18.4,N/A,,Unknown,160,2012-12-10 17:00:00
2:00 PM,41,41,98,29.96,,South,10.4,,,,,170,2012-12-10 18:00:00
2:00 PM,41.2,40.6,98,29.96,-9999.0,South,10.4,18.4,N/A,,Unknown,170,2012-12-10 18:00:00
3:00 PM,42.8,42.3,98,29.93,-9999.0,SSE,5.8,-,N/A,,Unknown,150,2012-12-10 19:00:00
4:00 PM,44.8,44.2,98,29.89,-9999.0,SSE,8.1,-,N/A,,Unknown,160,2012-12-10 20:00:00
5:00 PM,46.9,46.6,99,29.87,-9999.0,South,3.5,-,0.03,,Unknown,190,2012-12-10 21:00:00
6:00 PM,54.3,54.0,99,29.83,-9999.0,WSW,12.7,20.7,0.11,,Unknown,250,2012-12-10 22:00:00
7:00 PM,54.5,54.0,98,29.83,-9999.0,West,9.2,-,0.16,,Unknown,270,2012-12-10 23:00:00
8:00 PM,55,54,96,29.81,,WSW,6.9,,,,,250,2012-12-11 00:00:00
8:00 PM,54.7,54.1,98,29.81,-9999.0,WSW,6.9,-,0.04,,Unknown,250,2012-12-11 00:00:00
9:00 PM,55.6,55.0,98,29.79,-9999.0,WSW,8.1,-,0.06,,Unknown,250,2012-12-11 01:00:00
10:00 PM,56.1,55.6,98,29.73,-9999.0,WSW,8.1,-,N/A,,Unknown,240,2012-12-11 02:00:00
11:00 PM,56.7,56.1,98,29.67,-9999.0,WSW,9.2,-,0.03,,Unknown,240,2012-12-11 03:00:00